Location: Montreal
(45.5000°N, 73.5833°W)
Time: 11:09:46
(UTC-04:00)

Tiangong 1 - Pass Details

Date: 11 October 2017
Orbit: 292 x 319 km, 42.8° (Epoch: 23 October)

Event Time Altitude Azimuth Distance (km) Brightness Sun altitude
Rises 19:31:24 0° 267° (W) 2,044 6.7 -14.1°
Reaches altitude 10° 19:33:26 10° 260° (W) 1,207 4.9 -14.5°
Maximum altitude 19:36:01 41° 187° (S) 464 1.4 -14.9°
Enters shadow 19:36:40 33° 148° (SSE) 541 1.5 -15.0°
